This demonstration page uses our WeatherBlox Daily Observations layout. Learn more.

Left ArrowRight Arrow

39.92423, -83.80882

Hourly Observations for August 18, 2016

Temp ( °F °C ) Dew Point ( °F °C ) Humidity (%) Winds ( mph kmh ) Pressure ( in mb ) Visibility ( mi km ) Precip ( " mm )
12:56 am 00:56 Clear 69 20.6 67 19.4 93 93 W 7 11 N/A 10 16.0934 N/A
1:56 am 01:56 Clear with Mist and Fog 67 19.4 66 18.9 97 97 WSW 5 7 30.11 1020 6 9.65604 N/A
2:34 am 02:34 Clear with Mist and Fog 66 19 66 19 100 100 WSW 5 7 30.09 1019 1.75 2.816345 0.01 0.254
2:56 am 02:56 Clear with Mist and Fog 67 19.4 67 19.4 100 100 N N/A 30.11 1020 2 3.21868 0.02 0.508
3:04 am 03:04 Clear with Mist and Fog 66 19 66 19 100 100 W 3 6 N/A 1.25 2.011675 N/A
3:19 am 03:19 Clear with Mist and Fog 66 19 66 19 100 100 SW 3 6 30.09 1019 3 4.82802 N/A
3:35 am 03:35 Clear with Mist and Fog 66 19 66 19 100 100 SW 3 6 N/A 2.5 4.02335 0.01 0.254
3:48 am 03:48 Clear with Mist and Fog 64 18 64 18 100 100 WSW 6 9 30.12 1020 1.5 2.41401 0.01 0.254
3:56 am 03:56 Clear with Mist and Fog 65 18.3 65 18.3 100 100 SW 5 7 30.11 1020 1.75 2.816345 0.01 0.254
4:10 am 04:10 Clear with Mist and Fog 64 18 64 18 100 100 SW 3 6 30.12 1020 0.75 1.207005 0.01 0.254
4:27 am 04:27 Clear with Mist and Fog 66 19 66 19 100 100 N N/A 30.12 1020 1 1.60934 0.01 0.254
4:37 am 04:37 Clear with Mist and Fog 66 19 64 18 94 94 N N/A 30.12 1020 1.5 2.41401 0.01 0.254
4:56 am 04:56 Clear with Mist and Fog 66 18.9 66 18.9 100 100 SSW 5 7 30.11 1020 1 1.60934 0.02 0.508
5:05 am 05:05 Mostly Cloudy with Mist and Fog 66 19 66 19 100 100 SW 5 7 30.12 1020 0.75 1.207005 N/A
5:13 am 05:13 Mostly Clear with Mist and Fog 66 19 66 19 100 100 SW 5 7 N/A 1.25 2.011675 N/A
5:25 am 05:25 Mostly Cloudy with Mist and Fog 66 19 66 19 100 100 SW 5 7 30.12 1020 0.75 1.207005 N/A
5:34 am 05:34 Mostly Cloudy with Fog 64 18 64 18 100 100 SW 5 7 N/A 0.5 0.80467 N/A
5:56 am 05:56 Mostly Cloudy with Fog 66 18.9 65 18.3 96 96 N N/A 30.11 1020 0.5 0.80467 N/A
6:07 am 06:07 Mostly Cloudy with Fog 63 17 63 17 100 100 N N/A N/A 0.25 0.402335 N/A
6:25 am 06:25 Mostly Cloudy with Fog 64 18 64 18 100 100 N N/A N/A 0.5 0.80467 0.01 0.254
6:34 am 06:34 Mostly Cloudy with Fog 64 18 64 18 100 100 N N/A 30.15 1021 0.5 0.80467 0.01 0.254
6:45 am 06:45 Mostly Cloudy with Fog 66 19 66 19 100 100 N N/A 30.12 1020 0.25 0.402335 0.01 0.254
6:56 am 06:56 Cloudy with Fog 65 18.3 64 17.8 97 97 N N/A 30.13 1020 5 8.0467 0.01 0.254
7:56 am 07:56 Cloudy with Fog 67 19.4 67 19.4 100 100 SW 5 7 30.14 1021 5 8.0467 0.02 0.508
8:56 am 08:56 Cloudy with Fog 69 20.6 69 20.6 100 100 SW 3 6 30.14 1021 0.25 0.402335 N/A
9:51 am 09:51 Cloudy with Fog 72 22 70 21 94 94 undefined N/A N/A 0.5 0.80467 0.01 0.254
9:56 am 09:56 Cloudy with Fog 70 21.1 70 21.1 100 100 SW 3 6 30.14 1021 0.5 0.80467 0.01 0.254
10:05 am 10:05 Cloudy with Mist and Fog 72 22 72 22 100 100 WSW 7 11 30.12 1020 0.75 1.207005 N/A
10:18 am 10:18 Cloudy with Mist and Fog 72 22 72 22 100 100 W 3 6 30.12 1020 1.25 2.011675 N/A
10:40 am 10:40 Cloudy with Mist and Fog 72 22 72 22 100 100 SW 5 7 N/A 2.5 4.02335 N/A
10:56 am 10:56 Cloudy with Mist and Fog 72 22.2 71 21.7 97 97 undefined N/A N/A 3 4.82802 N/A
11:05 am 11:05 Cloudy with Mist and Fog 73 23 72 22 94 94 WSW 3 6 30.12 1020 3 4.82802 N/A
11:21 am 11:21 Cloudy with Mist and Fog 73 23 72 22 94 94 WSW 6 9 30.12 1020 5 8.0467 0.01 0.254
11:35 am 11:35 Mostly Cloudy with Mist and Fog 75 24 72 22 89 89 S 3 6 30.12 1020 6 9.65604 0.01 0.254
11:56 am 11:56 Mostly Cloudy 77 25 72 22.2 85 85 VRB 3 6 30.13 1020 9 14.48406 0.01 0.254
12:10 pm 12:10 Partly Cloudy 79 26 72 22 79 79 S 3 6 30.12 1020 10 16.0934 0.01 0.254
12:23 pm 12:23 Mostly Cloudy 79 26 72 22 79 79 undefined N/A N/A 10 16.0934 0.01 0.254
12:30 pm 12:30 Mostly Cloudy 79 26 72 22 79 79 SSW 6 9 30.12 1020 10 16.0934 0.01 0.254
12:56 pm 12:56 Mostly Cloudy 80 26.7 71 21.7 74 74 W 6 9 30.12 1020 10 16.0934 0.02 0.508
1:10 pm 13:10 Cloudy 81 27 70 21 70 70 WSW 5 7 30.09 1019 10 16.0934 0.01 0.254
1:17 pm 13:17 Mostly Cloudy 79 26 72 22 79 79 WSW 7 11 30.12 1020 10 16.0934 0.01 0.254
1:24 pm 13:24 Cloudy 79 26 72 22 79 79 undefined N/A N/A 10 16.0934 0.01 0.254
1:33 pm 13:33 Mostly Cloudy 81 27 72 22 74 74 WSW 6 9 30.06 1018 10 16.0934 0.02 0.508
1:56 pm 13:56 Mostly Cloudy 79 26.1 71 21.7 77 77 WSW 6 9 30.09 1019 10 16.0934 0.02 0.508
2:08 pm 14:08 Mostly Cloudy 81 27 72 22 74 74 VRB 7 11 30.06 1018 10 16.0934 0.01 0.254
2:23 pm 14:23 Mostly Cloudy 81 27 70 21 70 70 SSW 5 7 30.06 1018 10 16.0934 0.01 0.254
2:56 pm 14:56 Cloudy 81 27.2 70 21.1 69 69 undefined N/A 30.09 1019 10 16.0934 0.02 0.508
3:56 pm 15:56 Sunny 81 27.2 69 20.6 67 67 undefined N/A N/A 10 16.0934 0.02 0.508
4:56 pm 16:56 Sunny 82 27.8 70 21.1 67 67 SSW 7 11 N/A 10 16.0934 0.02 0.508
5:56 pm 17:56 Mostly Sunny 82 27.8 69 20.6 65 65 SSW 5 7 30.04 1017 10 16.0934 N/A
6:56 pm 18:56 Sunny 81 27.2 71 21.7 72 72 SW 3 6 30.03 1017 10 16.0934 0.04 1.016
7:56 pm 19:56 Mostly Sunny 80 26.7 70 21.1 71 71 undefined N/A N/A 10 16.0934 N/A
8:56 pm 20:56 Clear 74 23.3 69 20.6 85 85 N N/A 30.01 1016 10 16.0934 N/A
9:56 pm 21:56 Cloudy 73 22.8 70 21.1 90 90 N N/A 30.03 1017 10 16.0934 0.04 1.016
11:56 pm 23:56 Clear 71 21.7 69 20.6 94 94 N N/A 30.03 1017 9 14.48406 0.04 1.016

Powered by AerisWeather